| time (UTC) | temp F | wind direction | speed knots | gust knots | rain 1hr in | rain 24hr in | rain mn in | humidity % | barometer mb |
| 20260505093057 | 35 | 300 | 2.6 | 0.0 | 0.00 | 0.00 | 0.14 | 91 | 998.4 |
| 20260505091617 | 35 | 264 | 2.6 | 0.0 | 0.00 | 0.00 | 0.12 | 90 | 998.6 |
| 20260505090101 | 37 | 248 | 2.6 | 0.0 | 0.00 | 0.00 | 0.10 | 89 | 998.1 |
| 20260505084552 | 37 | 248 | 0.9 | 0.0 | 0.00 | 0.00 | 0.07 | 91 | 997.9 |
| 20260505083053 | 37 | 190 | 0.0 | 0.0 | 0.00 | 0.00 | 0.06 | 92 | 997.9 |
| 20260505081551 | 36 | 190 | 0.0 | 0.0 | 0.00 | 0.00 | 0.02 | 92 | 997.6 |
| 20260505080052 | 35 | 190 | 0.0 | 0.0 | 0.00 | 0.00 | 0.02 | 92 | 997.5 |
| 20260505074550 | 34 | 189 | 0.0 | 0.0 | 0.00 | 0.00 | 0.02 | 92 | 997.5 |
| 20260505073057 | 34 | 190 | 0.0 | 0.0 | 0.00 | 0.00 | 0.02 | 91 | 997.7 |
| 20260505071548 | 34 | 191 | 0.0 | 0.0 | 0.00 | 0.00 | 0.02 | 91 | 997.7 |
| 20260505070047 | 34 | 191 | 2.6 | 0.0 | 0.00 | 0.00 | 0.02 | 90 | 997.8 |
| 20260505064544 | 34 | 213 | 4.3 | 0.0 | 0.00 | 0.00 | 0.02 | 90 | 997.6 |
| 20260505063049 | 35 | 242 | 6.1 | 0.0 | 0.00 | 0.00 | 0.02 | 88 | 997.4 |
| 20260505061545 | 36 | 244 | 7.8 | 0.0 | 0.00 | 0.00 | 0.02 | 89 | 997.6 |
| 20260505060039 | 34 | 106 | 0.9 | 0.0 | 0.00 | 0.00 | 0.02 | 88 | 997.3 |
| 20260505054553 | 35 | 104 | 2.6 | 0.0 | 0.00 | 0.00 | 0.02 | 87 | 997.2 |
| 20260505053039 | 36 | 171 | 4.3 | 0.0 | 0.00 | 0.00 | 0.02 | 86 | 997.1 |
| 20260505051540 | 38 | 209 | 4.3 | 0.0 | 0.00 | 0.00 | 0.02 | 85 | 997.0 |
| 20260505041543 | 37 | 186 | 3.5 | 0.0 | 0.00 | 0.00 | 0.02 | 85 | 997.0 |
| 20260505040029 | 37 | 216 | 6.1 | 0.0 | 0.00 | 0.00 | 0.02 | 85 | 997.0 |
| 20260505034528 | 37 | 246 | 6.1 | 0.0 | 0.00 | 0.00 | 0.02 | 85 | 997.0 |
| 20260505033027 | 37 | 246 | 2.6 | 0.0 | 0.00 | 0.00 | 0.01 | 87 | 996.9 |
| 20260505031531 | 36 | 246 | 1.7 | 0.0 | 0.00 | 0.00 | 0.01 | 87 | 996.8 |
| 20260505030026 | 36 | 203 | 2.6 | 0.0 | 0.00 | 0.00 | 0.01 | 87 | 996.8 |
| 20260505024525 | 37 | 250 | 3.5 | 0.0 | 0.00 | 0.00 | 0.01 | 87 | 996.8 |
| 20260505023024 | 37 | 238 | 3.5 | 0.0 | 0.00 | 0.00 | 0.01 | 86 | 996.9 |
| 20260505021523 | 37 | 298 | 4.3 | 0.0 | 0.00 | 0.00 | 0.01 | 87 | 996.8 |
| 20260505020022 | 37 | 285 | 5.2 | 0.0 | 0.00 | 0.00 | 0.01 | 88 | 996.6 |
| 20260505014523 | 37 | 279 | 4.3 | 0.0 | 0.00 | 0.00 | 0.01 | 89 | 996.6 |
| 20260505013019 | 36 | 262 | 4.3 | 0.0 | 0.00 | 0.00 | 0.01 | 89 | 996.6 |
| 20260505011518 | 36 | 244 | 4.3 | 0.0 | 0.00 | 0.00 | 0.01 | 89 | 996.6 |
| 20260505010016 | 36 | 304 | 2.6 | 0.0 | 0.00 | 0.00 | 0.01 | 89 | 996.7 |
| 20260505004517 | 36 | 242 | 3.5 | 0.0 | 0.00 | 0.00 | 0.00 | 89 | 996.7 |
| 20260505003014 | 37 | 263 | 4.3 | 0.0 | 0.00 | 0.00 | 0.00 | 89 | 996.7 |
| 20260505001512 | 37 | 302 | 4.3 | 0.0 | 0.00 | 0.00 | 0.00 | 88 | 996.8 |
| 20260505000013 | 37 | 248 | 2.6 | 0.0 | 0.00 | 0.00 | 0.00 | 87 | 996.9 |
| 20260504234509 | 36 | 253 | 1.7 | 0.0 | 0.00 | 0.00 | 0.00 | 87 | 996.9 |
| 20260504233007 | 36 | 248 | 1.7 | 0.0 | 0.00 | 0.00 | 0.00 | 87 | 997.0 |
| 20260504231505 | 36 | 242 | 2.6 | 0.0 | 0.00 | 0.00 | 0.00 | 87 | 996.8 |
| 20260504230009 | 36 | 266 | 2.6 | 0.0 | 0.00 | 0.00 | 0.00 | 87 | 997.0 |
| 20260504224508 | 35 | 264 | 1.7 | 0.0 | 0.00 | 0.00 | 0.00 | 87 | 997.0 |
| 20260504223002 | 35 | 273 | 2.6 | 0.0 | 0.00 | 0.00 | 0.00 | 86 | 997.0 |
| 20260504221600 | 36 | 227 | 3.5 | 0.0 | 0.00 | 0.00 | 0.00 | 86 | 996.9 |
| 20260504220100 | 36 | 259 | 2.6 | 0.0 | 0.00 | 0.00 | 0.00 | 86 | 997.0 |
| 20260504214557 | 36 | 294 | 3.5 | 0.0 | 0.00 | 0.00 | 0.18 | 85 | 996.9 |
| 20260504213101 | 36 | 269 | 0.9 | 0.0 | 0.00 | 0.00 | 0.18 | 85 | 996.9 |
| 20260504211600 | 37 | 292 | 2.6 | 0.0 | 0.00 | 0.00 | 0.18 | 85 | 996.9 |
| 20260504204556 | 38 | 304 | 4.3 | 0.0 | 0.00 | 0.00 | 0.18 | 84 | 997.1 |
| 20260504203054 | 38 | 259 | 1.7 | 0.0 | 0.00 | 0.00 | 0.18 | 82 | 997.0 |
| 20260504201557 | 38 | 303 | 3.5 | 0.0 | 0.00 | 0.00 | 0.18 | 81 | 996.8 |
| 20260504194553 | 38 | 252 | 2.6 | 0.0 | 0.00 | 0.00 | 0.18 | 81 | 996.6 |
| 20260504193053 | 38 | 333 | 2.6 | 0.0 | 0.00 | 0.00 | 0.18 | 80 | 996.7 |
| 20260504191607 | 38 | 291 | 3.5 | 0.0 | 0.00 | 0.00 | 0.18 | 80 | 996.5 |
| 20260504190051 | 38 | 310 | 3.5 | 0.0 | 0.00 | 0.00 | 0.18 | 79 | 996.6 |
| 20260504184551 | 38 | 360 | 4.3 | 0.0 | 0.00 | 0.00 | 0.18 | 79 | 996.6 |
| 20260504183050 | 38 | 301 | 5.2 | 0.0 | 0.00 | 0.00 | 0.18 | 79 | 996.6 |
| 20260504181552 | 39 | 305 | 3.5 | 0.0 | 0.00 | 0.00 | 0.18 | 79 | 996.4 |
| 20260504180050 | 40 | 309 | 4.3 | 0.0 | 0.00 | 0.00 | 0.18 | 78 | 996.4 |
| 20260504174555 | 41 | 300 | 3.5 | 0.0 | 0.00 | 0.00 | 0.18 | 77 | 996.1 |
| 20260504173049 | 40 | 285 | 4.3 | 0.0 | 0.00 | 0.00 | 0.18 | 76 | 996.1 |
| 20260504171549 | 41 | 280 | 4.3 | 0.0 | 0.00 | 0.00 | 0.18 | 74 | 996.1 |